Home   Weather   Conception Bay South   Past weeks

Flag for Canada Past Weather in Conception Bay South, Newfoundland and Labrador, Canada — Yesterday and Last 2 Weeks

Now
41 °F

Passing clouds.


Feels Like: 35 °F
Forecast: 43 / 53 °F
Wind: 9 mph from North

Location: St. John's

Current Time: Sep 28, 2016 at 4:27:24 AM

Latest Report: Sep 28, 2016 at 3:30 AM


Visibility: 15 mi

Pressure: 30.26 "Hg

Humidity: 93%

Dew Point: 39 °F

Location of Conception Bay SouthLocation

Past Weather in Conception Bay South — Graph

°F

Conception Bay South Temperature Yesterday

Maximum temperature yesterday: 52 °F (at 1:30 PM)
Minimum temperature yesterday: 41 °F (at 5:30 AM)
Average temperature yesterday: 45 °F

High & Low Weather Summary for the Past Weeks

 TemperatureHumidityPressure
High73 °F (Sep 14, 1:30 PM)100% (Sep 19, 1:30 AM)30.35 "Hg (Sep 19, 1:30 AM)
Low36 °F (Sep 25, 4:30 AM)46% (Sep 13, 11:30 AM)29.57 "Hg (Sep 25, 4:30 PM)
Average53 °F83%29.93 "Hg
* Reported Sep 13 2:30 AM — Sep 28 2:30 AM, Conception Bay South, Weather by CustomWeather, © 2016

Note: Actual official high and low records may vary slightly from our data, if they occured in-between our weather recording intervals... More about our weather records

Advertising

Conception Bay South Weather History for the Previous 24 Hours

Scroll right to see more
 ConditionsComfort  
Time TempWeatherWind HumidityBarometerVisibility
2:30 AM
Wed, Sep 28
43 °FPassing clouds.7 mph93%30.22 "Hg15 mi
1:30 AM45 °FPassing clouds.7 mph93%30.19 "Hg15 mi
12:30 AM45 °FPassing clouds.7 mph93%30.15 "Hg15 mi
11:30 PM
Tue, Sep 27
45 °FPartly cloudy.6 mph93%30.11 "Hg15 mi
10:30 PM45 °FSprinkles. Mostly cloudy.10 mph93%30.07 "Hg15 mi
9:30 PM45 °FMostly cloudy.9 mph100%30.03 "Hg15 mi
8:30 PM46 °FSprinkles. Fog.3 mph87%29.99 "Hg6 mi
7:30 PM46 °FSprinkles. Mostly cloudy.No wind93%29.97 "Hg12 mi
6:30 PM46 °FMostly cloudy.5 mph93%29.93 "Hg15 mi
5:30 PM46 °FSprinkles. More clouds than sun.6 mph93%29.91 "Hg12 mi
4:30 PM46 °FSprinkles. Low clouds.6 mph93%29.91 "Hg12 mi
3:30 PM48 °FOvercast.9 mph87%29.89 "Hg15 mi
2:30 PM50 °FPartly sunny.6 mph71%29.88 "Hg15 mi
1:30 PM52 °FPassing clouds.6 mph62%29.88 "Hg15 mi
12:30 PM50 °FPassing clouds.13 mph67%29.88 "Hg15 mi
11:30 AM48 °FScattered clouds.12 mph71%29.88 "Hg15 mi
10:30 AM45 °FScattered clouds.8 mph81%29.87 "Hg15 mi
9:30 AM45 °FScattered clouds.15 mph81%29.85 "Hg15 mi
8:30 AM43 °FPartly sunny.12 mph87%29.83 "Hg15 mi
7:30 AM41 °FPartly sunny.15 mph93%29.80 "Hg15 mi
7:19 AM41 °FPartly sunny.15 mph93%29.80 "Hg15 mi
6:30 AM41 °FSprinkles. Mostly cloudy.10 mph93%29.78 "Hg15 mi
5:30 AM41 °FSprinkles. Mostly cloudy.7 mph93%29.76 "Hg12 mi
4:30 AM43 °FSprinkles. Fog.6 mph93%29.75 "Hg6 mi
Weather by CustomWeather, © 2016

See weather overviewHow to use our weather pages